User: anonymous   Login
Location: Newark
(52.0178°N, 4.7453°W)
Time: 02:32:59
(UTC+00:00)
Language:

Envisat - Orbit

View from above orbital plane
View from above orbital plane
View from above satellite
View from above satellite

Ground track
Ground track

The orbit data is extracted from the following two-line orbital elements,

1 27386U 02009A   19141.70601687 -.00000015  00000-0  86464-5 0  9998
2 27386  98.1510 164.1609 0001322  88.7340  24.3186 14.37948836902173
Epoch (UTC): 21 May 2019 16:56:39
Eccentricity: 0.0001322
inclination: 98.1510°
perigee height: 764 km
apogee height: 766 km
right ascension of ascending node: 164.1609°
argument of perigee: 88.7340°
revolutions per day: 14.37948836
mean anomaly at epoch: 24.3186°
orbit number at epoch: 90217

The dashed part of the orbit path shows where the satellite is in the earth's shadow,  

DLR